Precipitable_Water
0.27 0.28 0.28 0.29 0.32 0.35 0.33 0.32 0.28 0.30 0.31 0.34 0.38 0.40 0.44 0.47 0.46 0.45 0.42 0.40 0.37 0.35 0.33 0.29 0.26 0.25 0.25 0.26 0.28 0.29 0.30 0.30 0.31 0.33 0.35 0.35 0.36 0.42 0.50 0.57 0.65 0.68 0.73 0.79
0.32 0.32 0.33 0.31 0.34 0.33 0.33 0.32 0.34 0.33 0.29 0.37 0.41 0.45 0.46 0.46 0.46 0.43 0.41 0.39 0.37 0.35 0.32 0.26 0.25 0.24 0.25 0.26 0.28 0.30 0.30 0.31 0.32 0.33 0.34 0.34 0.35 0.37 0.45 0.53 0.60 0.68 0.67 0.77
0.26 0.34 0.34 0.28 0.27 0.33 0.34 0.37 0.36 0.27 0.31 0.42 0.41 0.42 0.45 0.46 0.45 0.42 0.41 0.39 0.37 0.35 0.30 0.27 0.26 0.26 0.26 0.28 0.29 0.30 0.31 0.32 0.32 0.33 0.34 0.33 0.34 0.36 0.39 0.47 0.57 0.61 0.64 0.71
0.28 0.31 0.19 0.26 0.32 0.33 0.33 0.33 0.36 0.35 0.36 0.38 0.41 0.46 0.49 0.48 0.44 0.43 0.41 0.37 0.36 0.32 0.29 0.27 0.27 0.28 0.30 0.30 0.30 0.30 0.31 0.32 0.32 0.33 0.34 0.33 0.33 0.35 0.37 0.43 0.51 0.59 0.64 0.69
0.25 0.23 0.24 0.25 0.27 0.26 0.27 0.26 0.37 0.36 0.35 0.38 0.40 0.43 0.42 0.45 0.46 0.41 0.37 0.35 0.33 0.31 0.28 0.28 0.28 0.29 0.29 0.29 0.30 0.31 0.31 0.32 0.33 0.34 0.34 0.33 0.32 0.34 0.37 0.40 0.45 0.57 0.61 0.66
0.27 0.21 0.17 0.21 0.29 0.33 0.32 0.20 0.34 0.39 0.38 0.37 0.40 0.31 0.36 0.43 0.42 0.38 0.37 0.34 0.32 0.30 0.29 0.28 0.29 0.30 0.29 0.29 0.30 0.30 0.32 0.33 0.35 0.35 0.35 0.35 0.33 0.34 0.37 0.39 0.42 0.53 0.57 0.60
0.26 0.23 0.24 0.29 0.32 0.34 0.21 0.23 0.37 0.38 0.38 0.39 0.37 0.39 0.42 0.41 0.39 0.37 0.35 0.32 0.30 0.29 0.28 0.28 0.29 0.30 0.28 0.29 0.28 0.31 0.33 0.35 0.36 0.36 0.36 0.37 0.36 0.36 0.37 0.38 0.42 0.47 0.54 0.58
0.28 0.24 0.18 0.35 0.33 0.25 0.31 0.38 0.39 0.40 0.42 0.41 0.41 0.39 0.39 0.38 0.35 0.33 0.30 0.29 0.29 0.27 0.27 0.28 0.29 0.29 0.28 0.28 0.30 0.32 0.34 0.34 0.35 0.37 0.38 0.38 0.37 0.37 0.38 0.38 0.41 0.43 0.48 0.52
0.30 0.26 0.34 0.38 0.35 0.40 0.41 0.39 0.41 0.41 0.43 0.41 0.37 0.35 0.35 0.33 0.30 0.28 0.28 0.28 0.27 0.27 0.26 0.27 0.29 0.30 0.28 0.29 0.31 0.32 0.33 0.33 0.36 0.38 0.39 0.39 0.38 0.37 0.36 0.38 0.39 0.42 0.43 0.47
0.27 0.33 0.35 0.38 0.43 0.45 0.45 0.43 0.46 0.45 0.42 0.39 0.34 0.32 0.28 0.27 0.27 0.26 0.25 0.26 0.26 0.26 0.26 0.26 0.29 0.30 0.31 0.31 0.33 0.33 0.33 0.34 0.36 0.36 0.38 0.39 0.39 0.39 0.37 0.37 0.37 0.42 0.42 0.42
0.31 0.37 0.40 0.43 0.44 0.45 0.45 0.49 0.48 0.44 0.39 0.33 0.29 0.26 0.27 0.26 0.24 0.24 0.25 0.25 0.26 0.25 0.26 0.27 0.29 0.31 0.32 0.33 0.34 0.33 0.33 0.34 0.35 0.36 0.38 0.38 0.39 0.38 0.38 0.39 0.38 0.39 0.42 0.42
0.28 0.40 0.38 0.41 0.47 0.51 0.49 0.46 0.42 0.35 0.29 0.29 0.29 0.27 0.25 0.24 0.24 0.25 0.24 0.24 0.24 0.24 0.25 0.26 0.27 0.29 0.30 0.32 0.33 0.32 0.32 0.33 0.34 0.35 0.37 0.37 0.37 0.37 0.39 0.39 0.39 0.41 0.44 0.42
0.38 0.45 0.46 0.49 0.53 0.50 0.40 0.34 0.30 0.27 0.29 0.26 0.26 0.25 0.25 0.24 0.24 0.24 0.23 0.22 0.21 0.22 0.23 0.24 0.26 0.27 0.28 0.30 0.29 0.28 0.29 0.31 0.33 0.34 0.35 0.35 0.35 0.35 0.35 0.37 0.38 0.39 0.40 0.42
0.45 0.46 0.44 0.48 0.42 0.42 0.39 0.30 0.28 0.29 0.27 0.25 0.25 0.25 0.24 0.23 0.22 0.20 0.18 0.18 0.18 0.18 0.18 0.19 0.20 0.21 0.24 0.26 0.25 0.24 0.24 0.26 0.27 0.29 0.32 0.33 0.34 0.34 0.35 0.34 0.34 0.35 0.37 0.39
0.46 0.49 0.48 0.47 0.43 0.39 0.35 0.25 0.24 0.24 0.24 0.25 0.26 0.24 0.22 0.19 0.17 0.16 0.17 0.16 0.15 0.14 0.15 0.16 0.16 0.17 0.20 0.20 0.19 0.18 0.18 0.19 0.20 0.21 0.23 0.25 0.27 0.30 0.32 0.33 0.33 0.34 0.35 0.36
0.47 0.48 0.46 0.41 0.37 0.33 0.27 0.22 0.21 0.22 0.25 0.25 0.22 0.20 0.18 0.17 0.16 0.15 0.15 0.14 0.12 0.12 0.13 0.14 0.15 0.17 0.18 0.18 0.17 0.16 0.16 0.16 0.16 0.16 0.17 0.17 0.19 0.20 0.22 0.25 0.29 0.31 0.32 0.33
0.40 0.38 0.38 0.35 0.30 0.25 0.21 0.22 0.24 0.25 0.24 0.21 0.18 0.18 0.16 0.14 0.13 0.13 0.13 0.12 0.12 0.13 0.14 0.14 0.15 0.17 0.17 0.17 0.16 0.15 0.15 0.15 0.15 0.14 0.14 0.14 0.15 0.15 0.16 0.18 0.19 0.22 0.27 0.31
0.43 0.42 0.37 0.30 0.24 0.20 0.21 0.24 0.25 0.23 0.20 0.18 0.17 0.16 0.13 0.12 0.11 0.11 0.12 0.12 0.12 0.12 0.13 0.14 0.15 0.16 0.16 0.16 0.16 0.15 0.14 0.14 0.13 0.13 0.13 0.13 0.13 0.14 0.14 0.14 0.15 0.16 0.19 0.22
0.40 0.33 0.28 0.24 0.22 0.23 0.24 0.24 0.22 0.20 0.18 0.16 0.15 0.13 0.12 0.12 0.11 0.11 0.12 0.11 0.11 0.11 0.12 0.14 0.15 0.15 0.14 0.15 0.15 0.15 0.14 0.13 0.13 0.12 0.12 0.12 0.12 0.12 0.12 0.13 0.13 0.14 0.15 0.16
0.26 0.24 0.23 0.24 0.26 0.26 0.24 0.22 0.19 0.16 0.15 0.14 0.12 0.12 0.11 0.11 0.12 0.11 0.11 0.10 0.11 0.12 0.14 0.14 0.14 0.14 0.14 0.14 0.14 0.14 0.14 0.13 0.12 0.12 0.12 0.11 0.11 0.11 0.12 0.12 0.12 0.12 0.13 0.13
0.23 0.24 0.24 0.25 0.25 0.24 0.21 0.18 0.15 0.13 0.13 0.12 0.12 0.11 0.11 0.12 0.12 0.12 0.11 0.10 0.12 0.14 0.14 0.14 0.13 0.13 0.13 0.13 0.13 0.13 0.13 0.12 0.12 0.12 0.11 0.11 0.11 0.11 0.11 0.11 0.11 0.11 0.12 0.12
0.25 0.25 0.25 0.25 0.23 0.20 0.17 0.15 0.13 0.12 0.12 0.11 0.12 0.12 0.12 0.11 0.12 0.12 0.13 0.11 0.12 0.14 0.14 0.13 0.13 0.13 0.13 0.12 0.12 0.12 0.12 0.12 0.12 0.11 0.11 0.11 0.10 0.10 0.10 0.11 0.11 0.11 0.11 0.12
0.27 0.26 0.25 0.23 0.20 0.16 0.15 0.13 0.12 0.12 0.11 0.12 0.12 0.12 0.12 0.13 0.13 0.12 0.11 0.13 0.13 0.13 0.13 0.13 0.13 0.13 0.13 0.12 0.12 0.11 0.11 0.11 0.11 0.11 0.11 0.10 0.10 0.10 0.10 0.10 0.10 0.11 0.11 0.11
0.27 0.25 0.23 0.22 0.18 0.14 0.11 0.12 0.12 0.13 0.13 0.13 0.14 0.14 0.14 0.13 0.13 0.14 0.14 0.14 0.14 0.13 0.13 0.13 0.13 0.12 0.12 0.12 0.11 0.11 0.11 0.11 0.10 0.10 0.10 0.10 0.10 0.09 0.09 0.09 0.10 0.10 0.11 0.11
0.26 0.24 0.21 0.19 0.15 0.12 0.11 0.12 0.13 0.13 0.14 0.13 0.14 0.15 0.16 0.16 0.14 0.14 0.15 0.15 0.14 0.13 0.12 0.12 0.12 0.12 0.12 0.12 0.12 0.11 0.11 0.11 0.10 0.10 0.09 0.09 0.08 0.08 0.09 0.09 0.09 0.09 0.09 0.10
0.23 0.21 0.21 0.18 0.13 0.11 0.11 0.12 0.12 0.12 0.13 0.13 0.14 0.15 0.16 0.16 0.15 0.15 0.14 0.14 0.14 0.14 0.13 0.13 0.13 0.13 0.13 0.13 0.13 0.12 0.12 0.12 0.11 0.11 0.10 0.10 0.09 0.08 0.08 0.09 0.09 0.09 0.09 0.09
0.22 0.22 0.20 0.16 0.13 0.12 0.11 0.12 0.12 0.11 0.13 0.13 0.13 0.15 0.15 0.15 0.16 0.15 0.15 0.15 0.14 0.14 0.14 0.14 0.14 0.14 0.14 0.14 0.14 0.13 0.13 0.12 0.12 0.11 0.11 0.10 0.10 0.10 0.09 0.09 0.09 0.09 0.09 0.09
Wind_Speed
29 27 27 27 28 26 28 32 29 35 33 32 31 29 28 25 25 25 24 25 26 27 28 29 30 31 32 33 34 35 36 36 37 38 38 39 39 38 34 33 31 28 27 25
25 22 25 26 28 28 28 29 29 32 36 28 28 25 24 24 25 25 24 25 26 26 28 29 30 31 32 33 34 35 36 36 37 37 37 38 38 37 34 32 30 27 26 23
25 23 21 23 34 31 30 29 30 30 25 23 23 24 24 23 23 23 23 25 26 26 27 28 30 31 32 33 34 34 35 36 36 36 36 37 37 36 34 31 30 27 25 23
20 19 25 26 24 29 33 36 33 27 22 21 22 21 20 20 21 22 22 23 24 25 26 28 30 31 32 33 33 34 35 35 35 36 36 37 36 35 34 31 29 26 24 23
18 20 23 25 22 21 22 26 27 26 20 16 14 15 19 20 19 19 20 21 22 24 26 28 29 30 31 32 33 34 34 35 35 35 35 35 35 34 33 31 27 25 22 21
18 18 20 20 19 20 18 24 21 22 22 20 17 16 17 16 15 16 18 20 22 24 26 28 29 30 31 32 32 33 34 35 35 34 34 34 34 33 31 29 25 23 20 19
19 19 20 19 18 14 17 18 15 18 19 19 17 17 14 13 14 16 18 20 23 24 26 28 29 30 31 31 32 33 34 34 34 34 33 33 32 31 29 26 23 21 19 17
17 18 20 15 14 14 15 13 13 13 15 15 14 13 12 13 14 16 19 21 23 24 25 27 28 29 30 30 32 33 34 34 33 33 31 31 30 27 24 23 20 19 18 16
16 16 16 16 16 14 12 10 12 11 12 13 13 13 13 14 15 17 18 20 22 23 24 25 27 28 29 30 31 32 32 32 31 29 28 27 25 22 20 19 17 17 16 14
13 13 13 13 11 10 10 9 10 10 11 11 11 12 12 13 15 16 18 19 21 22 23 24 26 27 27 29 30 30 29 29 27 25 24 22 21 18 17 16 15 15 15 13
11 10 9 10 10 9 8 8 9 9 9 9 8 10 10 12 14 15 16 18 20 21 22 24 25 25 25 26 26 26 25 24 23 21 21 19 18 16 14 13 13 14 13 13
16 17 13 11 10 9 8 11 10 8 6 6 6 7 8 10 12 13 15 18 19 21 22 23 23 23 23 23 23 23 23 22 20 19 19 18 17 15 13 12 12 12 12 12
13 12 11 12 12 10 10 9 7 6 5 4 4 5 6 8 11 13 15 17 18 20 21 21 21 21 21 21 21 22 22 21 19 18 18 17 16 15 13 13 12 12 12 11
11 10 10 13 11 11 9 7 6 5 3 2 2 5 6 8 11 12 14 16 17 17 18 19 19 19 19 19 20 20 20 20 19 18 18 17 16 15 14 13 12 12 12 11
13 11 14 15 13 11 9 8 6 4 2 2 4 5 7 8 10 11 13 14 15 16 17 18 19 19 19 19 19 19 19 19 19 18 17 17 16 16 15 14 13 12 12 11
14 13 16 15 13 11 9 7 5 3 2 2 3 5 6 7 8 10 11 13 14 16 17 17 18 19 19 19 19 19 19 19 19 18 18 17 17 16 16 15 14 13 13 12
16 14 16 15 13 11 8 6 4 3 2 1 2 3 5 6 8 9 11 12 14 15 16 17 18 19 19 19 20 20 20 20 19 19 19 18 17 17 17 16 15 14 14 13
14 16 15 14 13 10 8 5 4 3 2 0 1 3 4 6 7 9 10 12 14 15 16 17 18 19 20 20 20 21 21 21 20 20 19 19 19 18 18 17 16 16 15 15
16 15 14 12 11 9 7 6 4 3 2 2 2 2 4 5 7 8 10 12 13 15 17 18 19 20 20 21 21 22 22 22 22 21 21 21 20 20 19 18 18 17 17 17
15 14 13 11 10 8 7 6 5 4 3 3 3 3 4 5 7 8 10 12 14 15 16 18 19 20 21 22 22 23 23 24 24 23 23 23 23 22 20 20 19 19 19 18
15 14 12 11 9 7 7 7 6 5 5 4 3 3 3 4 6 8 10 12 13 15 16 18 20 21 22 23 24 24 24 25 25 25 25 24 24 23 22 21 20 20 20 20
14 13 12 10 9 8 8 8 7 6 6 5 4 3 2 4 6 7 9 11 13 15 16 18 20 22 23 24 25 25 25 26 26 27 27 26 26 25 24 22 21 20 20 20
13 12 12 10 10 9 9 8 8 8 7 6 4 3 1 3 5 7 9 11 13 15 17 19 20 22 23 25 26 27 27 27 27 28 28 28 27 26 25 24 22 21 20 19
13 12 11 11 10 10 10 9 9 9 8 6 5 3 1 3 6 8 9 10 13 15 17 19 21 23 24 26 27 28 28 28 29 29 29 29 28 27 26 25 23 22 21 20
13 13 12 12 11 11 11 11 10 9 8 7 6 5 4 5 7 8 10 11 13 15 18 20 21 23 25 27 28 29 29 30 30 30 30 29 29 28 27 25 24 23 21 20
14 13 13 12 12 13 13 12 11 11 10 8 8 7 7 8 8 9 11 13 15 16 18 20 22 24 26 27 29 30 30 31 31 31 31 30 29 28 27 26 25 24 23 22
12 12 13 13 14 14 14 13 12 12 12 11 9 9 9 9 10 11 13 15 16 18 20 21 23 25 27 28 30 30 31 32 32 31 31 30 29 29 29 28 27 26 24 23
Wind_Direction
250 245 247 247 248 247 245 253 254 264 263 262 253 255 254 258 263 268 273 278 285 290 295 299 302 306 309 311 313 315 316 317 319 321 323 325 325 326 322 324 322 316 319 318
255 248 243 244 246 246 249 247 257 264 263 264 255 252 250 256 260 266 270 277 285 291 296 300 303 306 309 311 312 314 315 316 317 319 321 324 325 326 324 323 324 317 318 320
248 247 251 254 248 249 253 255 255 258 266 260 253 248 251 256 260 265 271 279 285 291 297 301 304 306 309 310 311 313 314 315 316 318 320 323 324 325 325 322 322 320 315 318
248 252 252 255 256 252 253 256 257 261 262 257 254 251 249 257 263 268 273 281 287 292 298 302 305 307 308 310 312 313 314 314 316 316 318 321 323 323 323 321 321 319 316 315
246 248 264 264 260 261 257 265 254 250 250 251 250 251 262 261 267 272 279 284 288 295 300 303 306 308 309 310 312 313 314 314 315 315 316 319 321 321 321 321 319 319 319 319
245 248 253 262 268 266 259 263 254 245 243 241 244 254 262 261 266 276 283 288 293 297 302 305 307 309 310 311 312 314 314 314 314 315 315 316 318 318 318 318 315 317 314 319
241 248 260 259 265 265 255 267 262 245 239 235 251 261 253 260 272 279 287 293 297 301 304 306 308 309 311 312 313 314 315 315 314 314 314 314 316 316 316 316 313 315 313 312
240 241 256 256 260 258 262 269 253 242 237 236 238 242 249 266 278 285 292 297 300 302 305 308 310 312 312 313 314 315 315 315 315 314 314 314 314 315 316 316 315 317 314 311
234 245 258 261 261 267 259 250 250 237 226 226 234 244 256 273 283 291 296 299 303 305 308 310 313 314 315 316 316 317 317 317 317 317 317 317 317 318 318 319 319 321 320 315
239 251 258 251 255 252 248 245 228 215 218 228 239 244 264 279 289 295 300 304 307 310 312 314 317 318 318 320 321 321 321 321 322 321 323 323 322 320 321 322 324 324 329 323
242 245 259 254 242 230 233 216 207 214 222 232 244 253 268 285 296 301 306 309 313 314 315 317 319 321 323 325 327 328 329 329 329 327 328 328 329 327 324 325 330 332 333 336
252 243 253 236 218 209 205 199 203 210 224 242 245 263 284 297 305 310 315 317 318 318 319 319 320 323 326 330 334 335 336 336 336 335 335 334 333 330 333 331 333 337 339 345
246 239 227 206 204 199 184 191 201 204 213 222 260 284 304 313 318 322 325 327 327 326 325 323 322 323 326 330 333 338 340 340 340 340 342 341 338 338 332 332 334 338 342 341
213 206 198 190 189 179 178 176 171 175 195 229 286 309 319 325 328 328 330 332 335 338 340 340 336 331 329 330 332 336 340 341 340 339 340 340 341 339 338 335 328 329 337 339
196 195 183 173 171 174 173 168 169 177 206 284 307 318 326 330 335 339 341 344 346 347 346 346 348 348 343 338 337 337 339 341 342 340 339 340 338 338 338 337 335 331 328 332
178 175 172 173 174 175 176 177 176 204 257 293 317 328 336 343 346 347 350 350 350 350 351 351 350 349 348 347 346 343 340 339 339 339 337 336 336 335 334 333 331 330 330 328
166 169 171 174 179 180 182 189 200 218 225 283 322 346 357 0 2 0 360 360 0 359 356 356 354 354 352 351 349 347 345 341 338 336 335 333 330 329 328 327 325 323 321 321
179 171 175 176 177 179 183 192 194 194 219 229 22 24 22 19 17 13 12 9 8 7 5 1 359 358 358 357 356 354 352 348 344 341 336 333 329 325 322 319 319 315 314 313
170 170 173 174 177 178 184 186 190 187 171 146 103 66 45 36 30 25 20 16 12 10 7 7 6 4 3 1 359 357 356 354 351 346 342 338 331 324 319 314 312 310 308 305
170 170 170 171 177 183 184 185 177 169 164 144 116 88 65 45 34 28 21 16 12 10 8 7 6 5 3 1 359 358 357 356 354 349 346 343 339 333 322 313 307 304 302 300
169 170 173 177 181 186 185 182 177 173 165 152 137 116 82 49 27 22 18 13 9 9 8 6 5 4 2 1 359 357 356 355 354 353 349 345 342 338 332 326 315 304 299 295
175 179 181 184 188 188 188 184 179 171 165 156 142 127 84 34 23 15 10 8 6 5 4 3 2 2 1 360 359 357 355 354 352 351 349 347 344 340 336 331 325 317 306 296
184 187 188 192 194 192 189 187 186 181 177 173 167 158 80 11 5 3 359 358 0 360 359 359 358 359 358 357 356 355 354 353 351 350 348 347 345 343 340 336 331 324 318 309
191 193 198 198 196 196 194 201 196 194 195 199 205 215 266 336 340 344 348 350 352 353 354 354 354 355 355 354 354 353 352 351 350 348 347 346 344 342 341 338 334 329 323 317
197 199 202 204 207 206 202 202 202 204 205 210 219 238 275 311 326 329 336 338 341 344 346 347 349 349 350 350 350 350 350 349 348 347 347 346 344 342 340 338 336 332 328 322
202 208 212 216 215 209 209 210 215 215 217 226 237 254 275 299 311 318 324 329 332 335 338 340 341 343 344 345 345 345 345 345 345 344 344 344 344 344 342 340 337 335 330 326
212 216 220 223 220 217 217 220 223 225 227 233 246 257 274 289 300 308 315 321 325 328 331 332 335 336 338 339 340 340 341 342 342 341 341 341 341 341 340 338 336 334 331 327